owner,sensor,date,latitude,longitude,vertical_datum,wind_speed,wind_to_direction,wind_speed_of_gust,qcFlag 
ADCP,ioos:station:wmo:42361:1,2015-07-01T00:30:00Z,27.5500,-92.4900,122.0,8.6,292.0,99.0,'11111222,11111222,11144222' 
ADCP,ioos:station:wmo:42361:1,2015-07-01T01:30:00Z,27.5500,-92.4900,122.0,7.8,343.0,99.0,'11111222,11111222,11144222' 
ADCP,ioos:station:wmo:42361:1,2015-07-01T02:30:00Z,27.5500,-92.4900,122.0,7.7,9.0,99.0,'11111222,11111222,11144222' 
ADCP,ioos:station:wmo:42361:1,2015-07-01T03:30:00Z,27.5500,-92.4900,122.0,5.7,29.0,99.0,'11111222,11111222,11144222' 
ADCP,ioos:station:wmo:42361:1,2015-07-01T04:30:00Z,27.5500,-92.4900,122.0,5.8,52.0,99.0,'11111222,11111222,11144222' 
ADCP,ioos:station:wmo:42361:1,2015-07-01T05:30:00Z,27.5500,-92.4900,122.0,7.9,68.0,99.0,'11111222,11111222,11144222' 
ADCP,ioos:station:wmo:42361:1,2015-07-01T06:30:00Z,27.5500,-92.4900,122.0,8.6,79.0,99.0,'11111222,11111222,11144222' 
ADCP,ioos:station:wmo:42361:1,2015-07-01T07:30:00Z,27.5500,-92.4900,122.0,8.4,82.0,99.0,'11111222,11111222,11144222' 
ADCP,ioos:station:wmo:42361:1,2015-07-01T08:30:00Z,27.5500,-92.4900,122.0,8.0,92.0,99.0,'11111222,11111222,11144222' 
ADCP,ioos:station:wmo:42361:1,2015-07-01T09:30:00Z,27.5500,-92.4900,122.0,8.9,100.0,99.0,'11111222,11111222,11144222' 
ADCP,ioos:station:wmo:42361:1,2015-07-01T10:30:00Z,27.5500,-92.4900,122.0,9.4,100.0,99.0,'11111222,11111222,11144222' 
ADCP,ioos:station:wmo:42361:1,2015-07-01T11:30:00Z,27.5500,-92.4900,122.0,8.9,104.0,99.0,'11111222,11111222,11144222' 
ADCP,ioos:station:wmo:42361:1,2015-07-01T12:30:00Z,27.5500,-92.4900,122.0,9.8,113.0,99.0,'11111222,11111222,11144222' 
ADCP,ioos:station:wmo:42361:1,2015-07-01T13:30:00Z,27.5500,-92.4900,122.0,10.3,120.0,99.0,'11111222,11111222,11144222' 
ADCP,ioos:station:wmo:42361:1,2015-07-01T14:30:00Z,27.5500,-92.4900,122.0,10.4,123.0,99.0,'11111222,11111222,11144222' 
ADCP,ioos:station:wmo:42361:1,2015-07-01T15:30:00Z,27.5500,-92.4900,122.0,10.9,131.0,99.0,'11111222,11111222,11144222' 
ADCP,ioos:station:wmo:42361:1,2015-07-01T16:30:00Z,27.5500,-92.4900,122.0,11.5,137.0,99.0,'11111222,11111222,11144222' 
ADCP,ioos:station:wmo:42361:1,2015-07-01T17:30:00Z,27.5500,-92.4900,122.0,10.5,138.0,99.0,'11111222,11111222,11144222' 
ADCP,ioos:station:wmo:42361:1,2015-07-01T18:30:00Z,27.5500,-92.4900,122.0,9.8,138.0,99.0,'11111222,11111222,11144222' 
ADCP,ioos:station:wmo:42361:1,2015-07-01T19:30:00Z,27.5500,-92.4900,122.0,10.3,143.0,99.0,'11111222,11111222,11144222' 
ADCP,ioos:station:wmo:42361:1,2015-07-01T20:30:00Z,27.5500,-92.4900,122.0,10.7,146.0,99.0,'11111222,11111222,11144222' 
ADCP,ioos:station:wmo:42361:1,2015-07-01T21:30:00Z,27.5500,-92.4900,122.0,9.9,153.0,99.0,'11111222,11111222,11144222' 
ADCP,ioos:station:wmo:42361:1,2015-07-01T22:30:00Z,27.5500,-92.4900,122.0,8.9,154.0,99.0,'11111222,11111222,11144222' 
ADCP,ioos:station:wmo:42361:1,2015-07-01T23:30:00Z,27.5500,-92.4900,122.0,7.6,158.0,99.0,'11111222,11111222,11144222' 
ADCP,ioos:station:wmo:42361:1,2015-07-02T00:30:00Z,27.5500,-92.4900,122.0,6.5,158.0,99.0,'11111222,11111222,11144222' 
ADCP,ioos:station:wmo:42361:1,2015-07-02T01:30:00Z,27.5500,-92.4900,122.0,5.5,161.0,99.0,'11111222,11111222,11144222' 
ADCP,ioos:station:wmo:42361:1,2015-07-02T02:30:00Z,27.5500,-92.4900,122.0,3.9,165.0,99.0,'11111222,11111222,11144222' 
ADCP,ioos:station:wmo:42361:1,2015-07-02T03:30:00Z,27.5500,-92.4900,122.0,2.9,164.0,99.0,'11111222,11111222,11144222' 
ADCP,ioos:station:wmo:42361:1,2015-07-02T04:30:00Z,27.5500,-92.4900,122.0,2.8,145.0,99.0,'11111222,11111222,11144222' 
ADCP,ioos:station:wmo:42361:1,2015-07-02T05:30:00Z,27.5500,-92.4900,122.0,2.8,128.0,99.0,'11111222,11111222,11144222' 
ADCP,ioos:station:wmo:42361:1,2015-07-02T06:30:00Z,27.5500,-92.4900,122.0,3.2,123.0,99.0,'11111222,11111222,11144222' 
ADCP,ioos:station:wmo:42361:1,2015-07-02T07:30:00Z,27.5500,-92.4900,122.0,4.0,117.0,99.0,'11111222,11111222,11144222' 
ADCP,ioos:station:wmo:42361:1,2015-07-02T08:30:00Z,27.5500,-92.4900,122.0,4.8,114.0,99.0,'11111222,11111222,11144222' 
ADCP,ioos:station:wmo:42361:1,2015-07-02T09:30:00Z,27.5500,-92.4900,122.0,4.8,106.0,99.0,'11111222,11111222,11144222' 
ADCP,ioos:station:wmo:42361:1,2015-07-02T10:30:00Z,27.5500,-92.4900,122.0,4.7,106.0,99.0,'11111222,11111222,11144222' 
ADCP,ioos:station:wmo:42361:1,2015-07-02T11:30:00Z,27.5500,-92.4900,122.0,5.2,110.0,99.0,'11111222,11111222,11144222' 
ADCP,ioos:station:wmo:42361:1,2015-07-02T12:30:00Z,27.5500,-92.4900,122.0,6.0,115.0,99.0,'11111222,11111222,11144222' 
ADCP,ioos:station:wmo:42361:1,2015-07-02T13:30:00Z,27.5500,-92.4900,122.0,5.6,109.0,99.0,'11111222,11111222,11144222' 
ADCP,ioos:station:wmo:42361:1,2015-07-02T14:30:00Z,27.5500,-92.4900,122.0,5.5,109.0,99.0,'11111222,11111222,11144222' 
ADCP,ioos:station:wmo:42361:1,2015-07-02T15:30:00Z,27.5500,-92.4900,122.0,5.2,99.0,99.0,'11111222,11111222,11144222' 
ADCP,ioos:station:wmo:42361:1,2015-07-02T16:30:00Z,27.5500,-92.4900,122.0,6.5,104.0,99.0,'11111222,11111222,11144222' 
ADCP,ioos:station:wmo:42361:1,2015-07-02T17:30:00Z,27.5500,-92.4900,122.0,6.5,99.0,99.0,'11111222,11111222,11144222' 
ADCP,ioos:station:wmo:42361:1,2015-07-02T18:30:00Z,27.5500,-92.4900,122.0,7.1,97.0,99.0,'11111222,11111222,11144222' 
ADCP,ioos:station:wmo:42361:1,2015-07-02T19:30:00Z,27.5500,-92.4900,122.0,6.4,98.0,99.0,'11111222,11111222,11144222' 
ADCP,ioos:station:wmo:42361:1,2015-07-02T20:30:00Z,27.5500,-92.4900,122.0,7.0,95.0,99.0,'11111222,11111222,11144222' 
ADCP,ioos:station:wmo:42361:1,2015-07-02T21:30:00Z,27.5500,-92.4900,122.0,7.2,94.0,99.0,'11111222,11111222,11144222' 
ADCP,ioos:station:wmo:42361:1,2015-07-02T22:30:00Z,27.5500,-92.4900,122.0,7.8,102.0,99.0,'11111222,11111222,11144222' 
ADCP,ioos:station:wmo:42361:1,2015-07-02T23:30:00Z,27.5500,-92.4900,122.0,7.3,116.0,99.0,'11111222,11111222,11144222' 
ADCP,ioos:station:wmo:42361:1,2015-07-03T00:30:00Z,27.5500,-92.4900,122.0,6.5,116.0,99.0,'11111222,11111222,11144222' 
ADCP,ioos:station:wmo:42361:1,2015-07-03T01:30:00Z,27.5500,-92.4900,122.0,8.6,120.0,99.0,'11111222,11111222,11144222' 
ADCP,ioos:station:wmo:42361:1,2015-07-03T02:30:00Z,27.5500,-92.4900,122.0,7.1,129.0,99.0,'11111222,11111222,11144222' 
ADCP,ioos:station:wmo:42361:1,2015-07-03T03:30:00Z,27.5500,-92.4900,122.0,6.2,120.0,99.0,'11111222,11111222,11144222' 
ADCP,ioos:station:wmo:42361:1,2015-07-03T04:30:00Z,27.5500,-92.4900,122.0,8.5,138.0,99.0,'11111222,11111222,11144222' 
ADCP,ioos:station:wmo:42361:1,2015-07-03T05:30:00Z,27.5500,-92.4900,122.0,8.9,138.0,99.0,'11111222,11111222,11144222' 
ADCP,ioos:station:wmo:42361:1,2015-07-03T06:30:00Z,27.5500,-92.4900,122.0,8.8,144.0,99.0,'11111222,11111222,11144222' 
ADCP,ioos:station:wmo:42361:1,2015-07-03T07:30:00Z,27.5500,-92.4900,122.0,7.8,150.0,99.0,'11111222,11111222,11144222' 
ADCP,ioos:station:wmo:42361:1,2015-07-03T08:30:00Z,27.5500,-92.4900,122.0,5.8,145.0,99.0,'11111222,11111222,11144222' 
ADCP,ioos:station:wmo:42361:1,2015-07-03T09:30:00Z,27.5500,-92.4900,122.0,5.2,155.0,99.0,'11111222,11111222,11144222' 
ADCP,ioos:station:wmo:42361:1,2015-07-03T10:30:00Z,27.5500,-92.4900,122.0,4.3,162.0,99.0,'11111222,11111222,11144222' 
ADCP,ioos:station:wmo:42361:1,2015-07-03T11:30:00Z,27.5500,-92.4900,122.0,2.2,142.0,99.0,'11111222,11111222,11144222' 
ADCP,ioos:station:wmo:42361:1,2015-07-03T12:30:00Z,27.5500,-92.4900,122.0,2.5,160.0,99.0,'11111222,11111222,11144222' 
ADCP,ioos:station:wmo:42361:1,2015-07-03T13:30:00Z,27.5500,-92.4900,122.0,2.7,123.0,99.0,'11111222,11111222,11144222' 
ADCP,ioos:station:wmo:42361:1,2015-07-03T14:30:00Z,27.5500,-92.4900,122.0,3.8,107.0,99.0,'11111222,11111222,11144222' 
ADCP,ioos:station:wmo:42361:1,2015-07-03T15:30:00Z,27.5500,-92.4900,122.0,4.0,102.0,99.0,'11111222,11111222,11144222' 
ADCP,ioos:station:wmo:42361:1,2015-07-03T16:30:00Z,27.5500,-92.4900,122.0,5.1,118.0,99.0,'11111222,11111222,11144222' 
ADCP,ioos:station:wmo:42361:1,2015-07-03T17:30:00Z,27.5500,-92.4900,122.0,5.4,120.0,99.0,'11111222,11111222,11144222' 
ADCP,ioos:station:wmo:42361:1,2015-07-03T18:30:00Z,27.5500,-92.4900,122.0,4.6,117.0,99.0,'11111222,11111222,11144222' 
ADCP,ioos:station:wmo:42361:1,2015-07-03T19:30:00Z,27.5500,-92.4900,122.0,5.0,128.0,99.0,'11111222,11111222,11144222' 
ADCP,ioos:station:wmo:42361:1,2015-07-03T20:30:00Z,27.5500,-92.4900,122.0,5.4,136.0,99.0,'11111222,11111222,11144222' 
ADCP,ioos:station:wmo:42361:1,2015-07-03T21:30:00Z,27.5500,-92.4900,122.0,5.3,117.0,99.0,'11111222,11111222,11144222' 
ADCP,ioos:station:wmo:42361:1,2015-07-03T22:30:00Z,27.5500,-92.4900,122.0,5.1,108.0,99.0,'11111222,11111222,11144222' 
ADCP,ioos:station:wmo:42361:1,2015-07-03T23:30:00Z,27.5500,-92.4900,122.0,5.4,106.0,99.0,'11111222,11111222,11144222' 
ADCP,ioos:station:wmo:42361:1,2015-07-04T00:30:00Z,27.5500,-92.4900,122.0,5.5,105.0,99.0,'11111222,11111222,11144222' 
ADCP,ioos:station:wmo:42361:1,2015-07-04T01:30:00Z,27.5500,-92.4900,122.0,5.9,120.0,99.0,'11111222,11111222,11144222' 
ADCP,ioos:station:wmo:42361:1,2015-07-04T02:30:00Z,27.5500,-92.4900,122.0,6.8,135.0,99.0,'11111222,11111222,11144222' 
ADCP,ioos:station:wmo:42361:1,2015-07-04T03:30:00Z,27.5500,-92.4900,122.0,7.9,130.0,99.0,'11111222,11111222,11144222' 
ADCP,ioos:station:wmo:42361:1,2015-07-04T04:30:00Z,27.5500,-92.4900,122.0,7.4,134.0,99.0,'11111222,11111222,11144222' 
ADCP,ioos:station:wmo:42361:1,2015-07-04T05:30:00Z,27.5500,-92.4900,122.0,7.3,137.0,99.0,'11111222,11111222,11144222' 
ADCP,ioos:station:wmo:42361:1,2015-07-04T06:30:00Z,27.5500,-92.4900,122.0,7.3,134.0,99.0,'11111222,11111222,11144222' 
ADCP,ioos:station:wmo:42361:1,2015-07-04T07:30:00Z,27.5500,-92.4900,122.0,7.0,132.0,99.0,'11111222,11111222,11144222' 
ADCP,ioos:station:wmo:42361:1,2015-07-04T08:30:00Z,27.5500,-92.4900,122.0,7.0,133.0,99.0,'11111222,11111222,11144222' 
ADCP,ioos:station:wmo:42361:1,2015-07-04T09:30:00Z,27.5500,-92.4900,122.0,6.5,136.0,99.0,'11111222,11111222,11144222' 
ADCP,ioos:station:wmo:42361:1,2015-07-04T10:30:00Z,27.5500,-92.4900,122.0,7.1,138.0,99.0,'11111222,11111222,11144222' 
ADCP,ioos:station:wmo:42361:1,2015-07-04T11:30:00Z,27.5500,-92.4900,122.0,6.7,134.0,99.0,'11111222,11111222,11144222' 
ADCP,ioos:station:wmo:42361:1,2015-07-04T12:30:00Z,27.5500,-92.4900,122.0,6.3,133.0,99.0,'11111222,11111222,11144222' 
ADCP,ioos:station:wmo:42361:1,2015-07-04T13:30:00Z,27.5500,-92.4900,122.0,5.5,140.0,99.0,'11111222,11111222,11144222' 
ADCP,ioos:station:wmo:42361:1,2015-07-04T14:30:00Z,27.5500,-92.4900,122.0,4.6,129.0,99.0,'11111222,11111222,11144222' 
ADCP,ioos:station:wmo:42361:1,2015-07-04T15:30:00Z,27.5500,-92.4900,122.0,5.9,130.0,99.0,'11111222,11111222,11144222' 
ADCP,ioos:station:wmo:42361:1,2015-07-04T16:30:00Z,27.5500,-92.4900,122.0,6.7,132.0,99.0,'11111222,11111222,11144222' 
ADCP,ioos:station:wmo:42361:1,2015-07-04T17:30:00Z,27.5500,-92.4900,122.0,6.1,134.0,99.0,'11111222,11111222,11144222' 
ADCP,ioos:station:wmo:42361:1,2015-07-04T18:30:00Z,27.5500,-92.4900,122.0,6.2,137.0,99.0,'11111222,11111222,11144222' 
ADCP,ioos:station:wmo:42361:1,2015-07-04T19:30:00Z,27.5500,-92.4900,122.0,5.7,148.0,99.0,'11111222,11111222,11144222' 
ADCP,ioos:station:wmo:42361:1,2015-07-04T20:30:00Z,27.5500,-92.4900,122.0,5.7,152.0,99.0,'11111222,11111222,11144222' 
ADCP,ioos:station:wmo:42361:1,2015-07-04T21:30:00Z,27.5500,-92.4900,122.0,5.0,157.0,99.0,'11111222,11111222,11144222' 
ADCP,ioos:station:wmo:42361:1,2015-07-04T22:30:00Z,27.5500,-92.4900,122.0,4.2,163.0,99.0,'11111222,11111222,11144222' 
ADCP,ioos:station:wmo:42361:1,2015-07-04T23:30:00Z,27.5500,-92.4900,122.0,3.9,155.0,99.0,'11111222,11111222,11144222' 
ADCP,ioos:station:wmo:42361:1,2015-07-05T00:30:00Z,27.5500,-92.4900,122.0,3.4,165.0,99.0,'11111222,11111222,11144222' 
ADCP,ioos:station:wmo:42361:1,2015-07-05T01:30:00Z,27.5500,-92.4900,122.0,3.8,148.0,99.0,'11111222,11111222,11144222' 
ADCP,ioos:station:wmo:42361:1,2015-07-05T02:30:00Z,27.5500,-92.4900,122.0,3.5,126.0,99.0,'11111222,11111222,11144222' 
ADCP,ioos:station:wmo:42361:1,2015-07-05T03:30:00Z,27.5500,-92.4900,122.0,5.0,111.0,99.0,'11111222,11111222,11144222' 
ADCP,ioos:station:wmo:42361:1,2015-07-05T04:30:00Z,27.5500,-92.4900,122.0,5.3,111.0,99.0,'11111222,11111222,11144222' 
ADCP,ioos:station:wmo:42361:1,2015-07-05T05:30:00Z,27.5500,-92.4900,122.0,5.6,109.0,99.0,'11111222,11111222,11144222' 
ADCP,ioos:station:wmo:42361:1,2015-07-05T06:30:00Z,27.5500,-92.4900,122.0,6.4,111.0,99.0,'11111222,11111222,11144222' 
ADCP,ioos:station:wmo:42361:1,2015-07-05T07:30:00Z,27.5500,-92.4900,122.0,7.3,117.0,99.0,'11111222,11111222,11144222' 
ADCP,ioos:station:wmo:42361:1,2015-07-05T08:30:00Z,27.5500,-92.4900,122.0,7.0,125.0,99.0,'11111222,11111222,11144222' 
ADCP,ioos:station:wmo:42361:1,2015-07-05T09:30:00Z,27.5500,-92.4900,122.0,7.4,132.0,99.0,'11111222,11111222,11144222' 
ADCP,ioos:station:wmo:42361:1,2015-07-05T10:30:00Z,27.5500,-92.4900,122.0,7.2,140.0,99.0,'11111222,11111222,11144222' 
ADCP,ioos:station:wmo:42361:1,2015-07-05T11:30:00Z,27.5500,-92.4900,122.0,6.9,146.0,99.0,'11111222,11111222,11144222' 
ADCP,ioos:station:wmo:42361:1,2015-07-05T12:30:00Z,27.5500,-92.4900,122.0,6.1,142.0,99.0,'11111222,11111222,11144222' 
ADCP,ioos:station:wmo:42361:1,2015-07-05T13:30:00Z,27.5500,-92.4900,122.0,6.5,139.0,99.0,'11111222,11111222,11144222' 
ADCP,ioos:station:wmo:42361:1,2015-07-05T14:30:00Z,27.5500,-92.4900,122.0,6.0,138.0,99.0,'11111222,11111222,11144222' 
ADCP,ioos:station:wmo:42361:1,2015-07-05T15:30:00Z,27.5500,-92.4900,122.0,6.5,139.0,99.0,'11111222,11111222,11144222' 
ADCP,ioos:station:wmo:42361:1,2015-07-05T16:30:00Z,27.5500,-92.4900,122.0,6.8,143.0,99.0,'11111222,11111222,11144222' 
ADCP,ioos:station:wmo:42361:1,2015-07-05T17:30:00Z,27.5500,-92.4900,122.0,6.6,139.0,99.0,'11111222,11111222,11144222' 
ADCP,ioos:station:wmo:42361:1,2015-07-05T18:30:00Z,27.5500,-92.4900,122.0,6.3,137.0,99.0,'11111222,11111222,11144222' 
ADCP,ioos:station:wmo:42361:1,2015-07-05T19:30:00Z,27.5500,-92.4900,122.0,6.3,140.0,99.0,'11111222,11111222,11144222' 
ADCP,ioos:station:wmo:42361:1,2015-07-05T20:30:00Z,27.5500,-92.4900,122.0,5.8,137.0,99.0,'11111222,11111222,11144222' 
ADCP,ioos:station:wmo:42361:1,2015-07-05T21:30:00Z,27.5500,-92.4900,122.0,6.3,148.0,99.0,'11111222,11111222,11144222' 
ADCP,ioos:station:wmo:42361:1,2015-07-05T22:30:00Z,27.5500,-92.4900,122.0,5.6,151.0,99.0,'11111222,11111222,11144222' 
ADCP,ioos:station:wmo:42361:1,2015-07-05T23:30:00Z,27.5500,-92.4900,122.0,5.0,149.0,99.0,'11111222,11111222,11144222' 
ADCP,ioos:station:wmo:42361:1,2015-07-06T00:30:00Z,27.5500,-92.4900,122.0,4.8,134.0,99.0,'11111222,11111222,11144222' 
ADCP,ioos:station:wmo:42361:1,2015-07-06T01:30:00Z,27.5500,-92.4900,122.0,5.7,119.0,99.0,'11111222,11111222,11144222' 
ADCP,ioos:station:wmo:42361:1,2015-07-06T02:30:00Z,27.5500,-92.4900,122.0,6.1,106.0,99.0,'11111222,11111222,11144222' 
ADCP,ioos:station:wmo:42361:1,2015-07-06T03:30:00Z,27.5500,-92.4900,122.0,5.8,97.0,99.0,'11111222,11111222,11144222' 
ADCP,ioos:station:wmo:42361:1,2015-07-06T04:30:00Z,27.5500,-92.4900,122.0,6.7,99.0,99.0,'11111222,11111222,11144222' 
ADCP,ioos:station:wmo:42361:1,2015-07-06T05:30:00Z,27.5500,-92.4900,122.0,7.7,96.0,99.0,'11111222,11111222,11144222' 
ADCP,ioos:station:wmo:42361:1,2015-07-06T06:30:00Z,27.5500,-92.4900,122.0,8.9,100.0,99.0,'11111222,11111222,11144222' 
ADCP,ioos:station:wmo:42361:1,2015-07-06T07:30:00Z,27.5500,-92.4900,122.0,9.6,108.0,99.0,'11111222,11111222,11144222' 
ADCP,ioos:station:wmo:42361:1,2015-07-06T08:30:00Z,27.5500,-92.4900,122.0,9.9,118.0,99.0,'11111222,11111222,11144222' 
ADCP,ioos:station:wmo:42361:1,2015-07-06T09:30:00Z,27.5500,-92.4900,122.0,9.4,125.0,99.0,'11111222,11111222,11144222' 
ADCP,ioos:station:wmo:42361:1,2015-07-06T10:30:00Z,27.5500,-92.4900,122.0,8.8,126.0,99.0,'11111222,11111222,11144222' 
ADCP,ioos:station:wmo:42361:1,2015-07-06T11:30:00Z,27.5500,-92.4900,122.0,8.1,128.0,99.0,'11111222,11111222,11144222' 
ADCP,ioos:station:wmo:42361:1,2015-07-06T12:30:00Z,27.5500,-92.4900,122.0,8.9,133.0,99.0,'11111222,11111222,11144222' 
ADCP,ioos:station:wmo:42361:1,2015-07-06T13:30:00Z,27.5500,-92.4900,122.0,8.5,138.0,99.0,'11111222,11111222,11144222' 
ADCP,ioos:station:wmo:42361:1,2015-07-06T14:30:00Z,27.5500,-92.4900,122.0,9.1,132.0,99.0,'11111222,11111222,11144222' 
ADCP,ioos:station:wmo:42361:1,2015-07-06T15:30:00Z,27.5500,-92.4900,122.0,8.3,130.0,99.0,'11111222,11111222,11144222' 
ADCP,ioos:station:wmo:42361:1,2015-07-06T16:30:00Z,27.5500,-92.4900,122.0,8.6,125.0,99.0,'11111222,11111222,11144222' 
ADCP,ioos:station:wmo:42361:1,2015-07-06T17:30:00Z,27.5500,-92.4900,122.0,8.3,130.0,99.0,'11111222,11111222,11144222' 
ADCP,ioos:station:wmo:42361:1,2015-07-06T18:30:00Z,27.5500,-92.4900,122.0,7.1,133.0,99.0,'11111222,11111222,11144222' 
ADCP,ioos:station:wmo:42361:1,2015-07-06T19:30:00Z,27.5500,-92.4900,122.0,7.0,129.0,99.0,'11111222,11111222,11144222' 
ADCP,ioos:station:wmo:42361:1,2015-07-06T20:30:00Z,27.5500,-92.4900,122.0,7.2,124.0,99.0,'11111222,11111222,11144222' 
ADCP,ioos:station:wmo:42361:1,2015-07-06T21:30:00Z,27.5500,-92.4900,122.0,6.2,129.0,99.0,'11111222,11111222,11144222' 
ADCP,ioos:station:wmo:42361:1,2015-07-06T22:30:00Z,27.5500,-92.4900,122.0,6.7,120.0,99.0,'11111222,11111222,11144222' 
ADCP,ioos:station:wmo:42361:1,2015-07-06T23:30:00Z,27.5500,-92.4900,122.0,7.1,117.0,99.0,'11111222,11111222,11144222' 
ADCP,ioos:station:wmo:42361:1,2015-07-07T00:30:00Z,27.5500,-92.4900,122.0,7.8,117.0,99.0,'11111222,11111222,11144222' 
ADCP,ioos:station:wmo:42361:1,2015-07-07T01:30:00Z,27.5500,-92.4900,122.0,8.5,120.0,99.0,'11111222,11111222,11144222' 
ADCP,ioos:station:wmo:42361:1,2015-07-07T02:30:00Z,27.5500,-92.4900,122.0,8.9,127.0,99.0,'11111222,11111222,11144222' 
ADCP,ioos:station:wmo:42361:1,2015-07-07T03:30:00Z,27.5500,-92.4900,122.0,9.9,126.0,99.0,'11111222,11111222,11144222' 
ADCP,ioos:station:wmo:42361:1,2015-07-07T04:30:00Z,27.5500,-92.4900,122.0,10.6,126.0,99.0,'11111222,11111222,11144222' 
ADCP,ioos:station:wmo:42361:1,2015-07-07T05:30:00Z,27.5500,-92.4900,122.0,9.9,128.0,99.0,'11111222,11111222,11144222' 
ADCP,ioos:station:wmo:42361:1,2015-07-07T06:30:00Z,27.5500,-92.4900,122.0,7.7,140.0,99.0,'11111222,11111222,11144222' 
ADCP,ioos:station:wmo:42361:1,2015-07-07T07:30:00Z,27.5500,-92.4900,122.0,6.4,142.0,99.0,'11111222,11111222,11144222' 
ADCP,ioos:station:wmo:42361:1,2015-07-07T08:30:00Z,27.5500,-92.4900,122.0,6.2,138.0,99.0,'11111222,11111222,11144222' 
ADCP,ioos:station:wmo:42361:1,2015-07-07T09:30:00Z,27.5500,-92.4900,122.0,7.2,135.0,99.0,'11111222,11111222,11144222' 
ADCP,ioos:station:wmo:42361:1,2015-07-07T10:30:00Z,27.5500,-92.4900,122.0,6.7,134.0,99.0,'11111222,11111222,11144222' 
ADCP,ioos:station:wmo:42361:1,2015-07-07T11:30:00Z,27.5500,-92.4900,122.0,7.3,128.0,99.0,'11111222,11111222,11144222' 
ADCP,ioos:station:wmo:42361:1,2015-07-07T12:30:00Z,27.5500,-92.4900,122.0,8.5,123.0,99.0,'11111222,11111222,11144222' 
ADCP,ioos:station:wmo:42361:1,2015-07-07T13:30:00Z,27.5500,-92.4900,122.0,10.1,130.0,99.0,'11111222,11111222,11144222' 
ADCP,ioos:station:wmo:42361:1,2015-07-07T14:30:00Z,27.5500,-92.4900,122.0,9.3,127.0,99.0,'11111222,11111222,11144222' 
ADCP,ioos:station:wmo:42361:1,2015-07-07T15:30:00Z,27.5500,-92.4900,122.0,9.2,123.0,99.0,'11111222,11111222,11144222' 
ADCP,ioos:station:wmo:42361:1,2015-07-07T16:30:00Z,27.5500,-92.4900,122.0,10.3,123.0,99.0,'11111222,11111222,11144222' 
ADCP,ioos:station:wmo:42361:1,2015-07-07T17:30:00Z,27.5500,-92.4900,122.0,9.4,129.0,99.0,'11111222,11111222,11144222' 
ADCP,ioos:station:wmo:42361:1,2015-07-07T18:30:00Z,27.5500,-92.4900,122.0,9.0,128.0,99.0,'11111222,11111222,11144222' 
ADCP,ioos:station:wmo:42361:1,2015-07-07T19:30:00Z,27.5500,-92.4900,122.0,8.2,130.0,99.0,'11111222,11111222,11144222' 
ADCP,ioos:station:wmo:42361:1,2015-07-07T20:30:00Z,27.5500,-92.4900,122.0,8.3,131.0,99.0,'11111222,11111222,11144222' 
ADCP,ioos:station:wmo:42361:1,2015-07-07T21:30:00Z,27.5500,-92.4900,122.0,8.1,130.0,99.0,'11111222,11111222,11144222' 
ADCP,ioos:station:wmo:42361:1,2015-07-07T22:30:00Z,27.5500,-92.4900,122.0,8.5,131.0,99.0,'11111222,11111222,11144222' 
ADCP,ioos:station:wmo:42361:1,2015-07-07T23:30:00Z,27.5500,-92.4900,122.0,8.2,133.0,99.0,'11111222,11111222,11144222' 
ADCP,ioos:station:wmo:42361:1,2015-07-08T00:30:00Z,27.5500,-92.4900,122.0,7.7,128.0,99.0,'11111222,11111222,11144222' 
ADCP,ioos:station:wmo:42361:1,2015-07-08T01:30:00Z,27.5500,-92.4900,122.0,8.4,123.0,99.0,'11111222,11111222,11144222' 
ADCP,ioos:station:wmo:42361:1,2015-07-08T02:30:00Z,27.5500,-92.4900,122.0,9.5,116.0,99.0,'11111222,11111222,11144222' 
ADCP,ioos:station:wmo:42361:1,2015-07-08T03:30:00Z,27.5500,-92.4900,122.0,9.8,115.0,99.0,'11111222,11111222,11144222' 
ADCP,ioos:station:wmo:42361:1,2015-07-08T04:30:00Z,27.5500,-92.4900,122.0,8.6,117.0,99.0,'11111222,11111222,11144222' 
ADCP,ioos:station:wmo:42361:1,2015-07-08T05:30:00Z,27.5500,-92.4900,122.0,8.4,133.0,99.0,'11111222,11111222,11144222' 
ADCP,ioos:station:wmo:42361:1,2015-07-08T06:30:00Z,27.5500,-92.4900,122.0,7.5,144.0,99.0,'11111222,11111222,11144222' 
ADCP,ioos:station:wmo:42361:1,2015-07-08T07:30:00Z,27.5500,-92.4900,122.0,6.9,153.0,99.0,'11111222,11111222,11144222' 
ADCP,ioos:station:wmo:42361:1,2015-07-08T08:30:00Z,27.5500,-92.4900,122.0,6.7,153.0,99.0,'11111222,11111222,11144222' 
ADCP,ioos:station:wmo:42361:1,2015-07-08T09:30:00Z,27.5500,-92.4900,122.0,6.6,151.0,99.0,'11111222,11111222,11144222' 
ADCP,ioos:station:wmo:42361:1,2015-07-08T10:30:00Z,27.5500,-92.4900,122.0,6.3,142.0,99.0,'11111222,11111222,11144222' 
ADCP,ioos:station:wmo:42361:1,2015-07-08T11:30:00Z,27.5500,-92.4900,122.0,7.1,127.0,99.0,'11111222,11111222,11144222' 
ADCP,ioos:station:wmo:42361:1,2015-07-08T12:30:00Z,27.5500,-92.4900,122.0,7.2,115.0,99.0,'11111222,11111222,11144222' 
ADCP,ioos:station:wmo:42361:1,2015-07-08T13:30:00Z,27.5500,-92.4900,122.0,6.9,111.0,99.0,'11111222,11111222,11144222' 
ADCP,ioos:station:wmo:42361:1,2015-07-08T14:30:00Z,27.5500,-92.4900,122.0,6.9,114.0,99.0,'11111222,11111222,11144222' 
ADCP,ioos:station:wmo:42361:1,2015-07-08T15:30:00Z,27.5500,-92.4900,122.0,7.8,118.0,99.0,'11111222,11111222,11144222' 
ADCP,ioos:station:wmo:42361:1,2015-07-08T16:30:00Z,27.5500,-92.4900,122.0,8.0,124.0,99.0,'11111222,11111222,11144222' 
ADCP,ioos:station:wmo:42361:1,2015-07-08T17:30:00Z,27.5500,-92.4900,122.0,7.5,126.0,99.0,'11111222,11111222,11144222' 
ADCP,ioos:station:wmo:42361:1,2015-07-08T18:30:00Z,27.5500,-92.4900,122.0,7.0,123.0,99.0,'11111222,11111222,11144222' 
ADCP,ioos:station:wmo:42361:1,2015-07-08T19:30:00Z,27.5500,-92.4900,122.0,6.6,115.0,99.0,'11111222,11111222,11144222' 
ADCP,ioos:station:wmo:42361:1,2015-07-08T20:30:00Z,27.5500,-92.4900,122.0,6.8,118.0,99.0,'11111222,11111222,11144222' 
ADCP,ioos:station:wmo:42361:1,2015-07-08T21:30:00Z,27.5500,-92.4900,122.0,6.1,113.0,99.0,'11111222,11111222,11144222' 
ADCP,ioos:station:wmo:42361:1,2015-07-08T22:30:00Z,27.5500,-92.4900,122.0,6.5,119.0,99.0,'11111222,11111222,11144222' 
ADCP,ioos:station:wmo:42361:1,2015-07-08T23:30:00Z,27.5500,-92.4900,122.0,5.7,119.0,99.0,'11111222,11111222,11144222' 
ADCP,ioos:station:wmo:42361:1,2015-07-09T00:30:00Z,27.5500,-92.4900,122.0,4.9,115.0,99.0,'11111222,11111222,11144222' 
ADCP,ioos:station:wmo:42361:1,2015-07-09T01:30:00Z,27.5500,-92.4900,122.0,5.5,107.0,99.0,'11111222,11111222,11144222' 
ADCP,ioos:station:wmo:42361:1,2015-07-09T02:30:00Z,27.5500,-92.4900,122.0,5.6,104.0,99.0,'11111222,11111222,11144222' 
ADCP,ioos:station:wmo:42361:1,2015-07-09T03:30:00Z,27.5500,-92.4900,122.0,6.2,102.0,99.0,'11111222,11111222,11144222' 
ADCP,ioos:station:wmo:42361:1,2015-07-09T04:30:00Z,27.5500,-92.4900,122.0,6.9,107.0,99.0,'11111222,11111222,11144222' 
ADCP,ioos:station:wmo:42361:1,2015-07-09T05:30:00Z,27.5500,-92.4900,122.0,6.2,98.0,99.0,'11111222,11111222,11144222' 
ADCP,ioos:station:wmo:42361:1,2015-07-09T06:30:00Z,27.5500,-92.4900,122.0,6.7,93.0,99.0,'11111222,11111222,11144222' 
ADCP,ioos:station:wmo:42361:1,2015-07-09T07:30:00Z,27.5500,-92.4900,122.0,7.2,101.0,99.0,'11111222,11111222,11144222' 